• In Deutschland
  • Länderverzeichnis
  • Für 7 Tage
  • Wassertemperatur
  • Satellitenkarten
  • Wetterkarte
  • Widgets
  • user-avatar
    Anmelden

    Stündliche Wetter Ganja

    Heute, 23 April, Sonntag

    Zeit Temperatur Niederschläge Wind Luftdruck Luftfeuchtigkeit
    00:00 +12°C° 0 mm 2 m/S 728 mmHg 62%
    01:00 +10°C° 0 mm 2 m/S 727 mmHg 67%
    02:00 +10°C° 0 mm 3 m/S 727 mmHg 72%
    03:00 +8°C° 0 mm 4 m/S 727 mmHg 80%
    04:00 +8°C° 0 mm 4 m/S 727 mmHg 80%
    05:00 +9°C° 0 mm 3 m/S 727 mmHg 80%
    06:00 +9°C° 0 mm 3 m/S 727 mmHg 80%
    07:00 +11°C° 0 mm 3 m/S 727 mmHg 73%
    08:00 +13°C° 0 mm 3 m/S 726 mmHg 66%
    09:00 +17°C° 0 mm 3 m/S 726 mmHg 59%
    10:00 +18°C° 0 mm 3 m/S 725 mmHg 55%
    11:00 +19°C° 0 mm 3 m/S 724 mmHg 52%
    12:00 +20°C° 0 mm 4 m/S 724 mmHg 48%
    13:00 +21°C° 0 mm 4 m/S 723 mmHg 47%
    14:00 +21°C° 0 mm 4 m/S 722 mmHg 46%
    15:00 +22°C° 0 mm 3 m/S 721 mmHg 46%
    16:00 +21°C° 0 mm 3 m/S 720 mmHg 51%
    17:00 +20°C° 0 mm 3 m/S 719 mmHg 57%
    18:00 +18°C° 0 mm 2 m/S 719 mmHg 63%
    19:00 +17°C° 0 mm 2 m/S 718 mmHg 66%
    20:00 +16°C° 0 mm 2 m/S 718 mmHg 69%
    21:00 +15°C° 0 mm 2 m/S 718 mmHg 73%
    22:00 +14°C° 0 mm 2 m/S 718 mmHg 75%
    23:00 +14°C° 0 mm 2 m/S 718 mmHg 78%

    Morgen, 24 April, Montag

    Zeit Temperatur Niederschläge Wind Luftdruck Luftfeuchtigkeit
    00:00 +12°C° 0 mm 3 m/S 718 mmHg 80%
    01:00 +12°C° 0 mm 3 m/S 718 mmHg 78%
    02:00 +12°C° 0 mm 4 m/S 718 mmHg 77%
    03:00 +12°C° 0 mm 5 m/S 718 mmHg 75%
    04:00 +11°C° 0 mm 6 m/S 718 mmHg 72%
    05:00 +11°C° 0 mm 6 m/S 719 mmHg 68%
    06:00 +11°C° 0 mm 6 m/S 719 mmHg 65%
    07:00 +14°C° 0 mm 7 m/S 719 mmHg 58%
    08:00 +16°C° 0 mm 8 m/S 719 mmHg 52%
    09:00 +17°C° 0 mm 8 m/S 719 mmHg 45%
    10:00 +18°C° 0 mm 8 m/S 719 mmHg 43%
    11:00 +20°C° 0 mm 8 m/S 719 mmHg 41%
    12:00 +20°C° 0 mm 8 m/S 720 mmHg 39%
    13:00 +20°C° 0,3 mm 7 m/S 720 mmHg 41%
    14:00 +18°C° 0,3 mm 7 m/S 720 mmHg 44%
    15:00 +18°C° 0,3 mm 7 m/S 720 mmHg 46%
    16:00 +17°C° 0,1 mm 6 m/S 721 mmHg 48%
    17:00 +16°C° 0,1 mm 5 m/S 722 mmHg 49%
    18:00 +15°C° 0,1 mm 5 m/S 722 mmHg 51%
    19:00 +14°C° 0 mm 4 m/S 723 mmHg 54%
    20:00 +13°C° 0 mm 4 m/S 724 mmHg 56%
    21:00 +11°C° 0 mm 4 m/S 725 mmHg 59%
    22:00 +11°C° 0 mm 4 m/S 725 mmHg 60%
    23:00 +10°C° 0 mm 4 m/S 725 mmHg 61%

    übermorgen, 25 April, Dienstag

    Zeit Temperatur Niederschläge Wind Luftdruck Luftfeuchtigkeit
    00:00 +10°C° 0 mm 3 m/S 726 mmHg 61%
    01:00 +9°C° 0 mm 3 m/S 726 mmHg 63%
    02:00 +9°C° 0 mm 3 m/S 726 mmHg 64%
    03:00 +8°C° 0 mm 3 m/S 726 mmHg 65%
    04:00 +9°C° 0 mm 3 m/S 726 mmHg 66%
    05:00 +9°C° 0 mm 3 m/S 727 mmHg 67%
    06:00 +9°C° 0 mm 3 m/S 727 mmHg 67%
    07:00 +10°C° 0 mm 4 m/S 728 mmHg 61%
    08:00 +12°C° 0 mm 4 m/S 728 mmHg 54%
    09:00 +13°C° 0 mm 5 m/S 728 mmHg 47%
    10:00 +14°C° 0 mm 5 m/S 728 mmHg 46%
    11:00 +14°C° 0 mm 4 m/S 728 mmHg 44%
    12:00 +15°C° 0 mm 4 m/S 728 mmHg 42%
    13:00 +15°C° 0 mm 4 m/S 728 mmHg 42%
    14:00 +15°C° 0 mm 4 m/S 728 mmHg 42%
    15:00 +15°C° 0 mm 4 m/S 728 mmHg 42%
    16:00 +14°C° 0 mm 4 m/S 729 mmHg 44%
    17:00 +13°C° 0 mm 4 m/S 730 mmHg 45%
    18:00 +12°C° 0 mm 4 m/S 730 mmHg 47%
    19:00 +12°C° 0 mm 3 m/S 731 mmHg 47%
    20:00 +12°C° 0 mm 2 m/S 732 mmHg 47%
    21:00 +10°C° 0 mm 2 m/S 733 mmHg 48%
    22:00 +9°C° 0 mm 2 m/S 734 mmHg 50%
    23:00 +8°C° 0 mm 2 m/S 734 mmHg 52%

    26 April, Mittwoch

    Zeit Temperatur Niederschläge Wind Luftdruck Luftfeuchtigkeit
    00:00 +8°C° 0 mm 2 m/S 734 mmHg 54%
    01:00 +8°C° 0 mm 1 m/S 734 mmHg 56%
    02:00 +7°C° 0 mm 1 m/S 734 mmHg 57%
    03:00 +7°C° 0 mm 1 m/S 734 mmHg 58%
    04:00 +7°C° 0 mm 1 m/S 735 mmHg 59%
    05:00 +8°C° 0 mm 1 m/S 735 mmHg 59%
    06:00 +8°C° 0 mm 1 m/S 735 mmHg 60%
    07:00 +8°C° 0 mm 2 m/S 736 mmHg 57%
    08:00 +10°C° 0 mm 3 m/S 736 mmHg 54%
    09:00 +11°C° 0 mm 4 m/S 736 mmHg 51%
    10:00 +12°C° 0 mm 4 m/S 735 mmHg 51%
    11:00 +13°C° 0 mm 5 m/S 735 mmHg 51%
    12:00 +13°C° 0 mm 6 m/S 734 mmHg 50%
    13:00 +14°C° 0 mm 5 m/S 734 mmHg 48%
    14:00 +14°C° 0 mm 5 m/S 734 mmHg 47%
    15:00 +15°C° 0 mm 5 m/S 733 mmHg 45%
    16:00 +14°C° 0 mm 5 m/S 733 mmHg 48%
    17:00 +14°C° 0 mm 5 m/S 734 mmHg 52%
    18:00 +13°C° 0 mm 4 m/S 734 mmHg 55%
    19:00 +11°C° 0 mm 4 m/S 734 mmHg 60%
    20:00 +10°C° 0 mm 3 m/S 735 mmHg 65%
    21:00 +8°C° 0 mm 3 m/S 735 mmHg 70%
    22:00 +8°C° 0 mm 3 m/S 735 mmHg 72%
    23:00 +7°C° 0 mm 2 m/S 735 mmHg 75%

    27 April, Donnerstag

    Zeit Temperatur Niederschläge Wind Luftdruck Luftfeuchtigkeit
    00:00 +6°C° 0 mm 2 m/S 735 mmHg 77%
    01:00 +6°C° 0 mm 2 m/S 735 mmHg 79%
    02:00 +6°C° 0 mm 1 m/S 734 mmHg 81%
    03:00 +6°C° 0 mm 1 m/S 734 mmHg 83%
    04:00 +6°C° 0 mm 1 m/S 734 mmHg 80%
    05:00 +7°C° 0 mm 1 m/S 734 mmHg 77%
    06:00 +8°C° 0 mm 1 m/S 735 mmHg 74%
    07:00 +10°C° 0 mm 1 m/S 734 mmHg 66%
    08:00 +10°C° 0 mm 2 m/S 734 mmHg 57%
    09:00 +12°C° 0 mm 3 m/S 734 mmHg 49%
    10:00 +13°C° 0 mm 3 m/S 733 mmHg 46%
    11:00 +15°C° 0 mm 4 m/S 733 mmHg 43%
    12:00 +17°C° 0 mm 4 m/S 732 mmHg 40%
    13:00 +16°C° 0 mm 5 m/S 732 mmHg 41%
    14:00 +16°C° 0 mm 5 m/S 732 mmHg 42%
    15:00 +17°C° 0 mm 5 m/S 731 mmHg 43%
    16:00 +16°C° 0 mm 5 m/S 732 mmHg 47%
    17:00 +15°C° 0 mm 4 m/S 732 mmHg 50%
    18:00 +14°C° 0 mm 4 m/S 732 mmHg 54%
    19:00 +13°C° 0 mm 4 m/S 733 mmHg 59%
    20:00 +11°C° 0 mm 3 m/S 734 mmHg 63%
    21:00 +10°C° 0 mm 3 m/S 734 mmHg 68%
    22:00 +9°C° 0 mm 3 m/S 734 mmHg 69%
    23:00 +9°C° 0 mm 2 m/S 734 mmHg 70%

    28 April, Freitag

    Zeit Temperatur Niederschläge Wind Luftdruck Luftfeuchtigkeit
    00:00 +8°C° 0 mm 2 m/S 734 mmHg 71%
    01:00 +8°C° 0 mm 2 m/S 734 mmHg 71%
    02:00 +8°C° 0 mm 1 m/S 733 mmHg 71%
    03:00 +8°C° 0 mm 1 m/S 733 mmHg 71%
    04:00 +9°C° 0 mm 1 m/S 733 mmHg 69%
    05:00 +9°C° 0 mm 1 m/S 734 mmHg 67%
    06:00 +10°C° 0 mm 1 m/S 734 mmHg 65%
    07:00 +11°C° 0 mm 1 m/S 733 mmHg 62%
    08:00 +12°C° 0 mm 1 m/S 733 mmHg 59%
    09:00 +13°C° 0 mm 2 m/S 733 mmHg 55%
    10:00 +14°C° 0 mm 2 m/S 732 mmHg 54%
    11:00 +15°C° 0 mm 2 m/S 732 mmHg 53%
    12:00 +17°C° 0 mm 2 m/S 731 mmHg 51%
    13:00 +17°C° 0 mm 3 m/S 731 mmHg 50%
    14:00 +18°C° 0 mm 3 m/S 730 mmHg 49%
    15:00 +18°C° 0 mm 3 m/S 730 mmHg 49%
    16:00 +18°C° 0 mm 3 m/S 730 mmHg 51%
    17:00 +17°C° 0 mm 2 m/S 730 mmHg 54%
    18:00 +17°C° 0 mm 2 m/S 730 mmHg 57%
    19:00 +15°C° 0 mm 2 m/S 731 mmHg 61%
    20:00 +13°C° 0 mm 2 m/S 731 mmHg 65%
    21:00 +10°C° 0 mm 2 m/S 731 mmHg 69%
    22:00 +11°C° 0 mm 1 m/S 731 mmHg 70%
    23:00 +10°C° 0 mm 1 m/S 731 mmHg 72%
    Mehr zeigen